Regional Weather Roundup
Issued by NWS

Home | Current Version | Previous Version | Text Only | Print | Product List | Glossary Off
Versions: 1 2 3 4 5 6 7 8 9 10 11 12 13 14 15 16 17 18 19 20 21 22 23 24 25 26 27 28 29 30 31 32 33 34 35 36 37 38 39 40 41 42 43 44 45 46 47 48 49 50

000
ASUS44 KMEG 260910
RWRTN
TENNESSEE HOURLY STATE WEATHER ROUNDUP
NATIONAL WEATHER SERVICE MEMPHIS TN
400 AM CDT SAT MAY 26 2018

TNZ002-004-019-021-049-052-054-088>092-261000-
WEST TENNESSEE

CITY           SKY/WX    TMP DP  RH WIND       PRES   REMARKS
MEMPHIS INTL   FAIR      71  70  96 SW3       29.85S
NWS MEMPHIS      N/A     69 N/A N/A MISG        N/A
JACKSON        MOCLDY    68  68 100 S3        29.87S
DYERSBURG      FAIR      69  68  96 CALM      29.87R
SOMERVILLE     CLOUDY    68  68 100 CALM      29.86R
COVINGTON      PTCLDY    70  68  94 S3        29.85S
UNION CITY     PTCLDY    70  70 100 S5        29.85S FOG
BOLIVAR        MOCLDY    66  66 100 CALM      29.88R
PARIS          CLOUDY    68  68 100 S5        29.88R
HUNTINGDON     CLOUDY    68  68 100 CALM      29.87R
LEXINGTON      CLEAR     68  66  94 CALM      29.88S
SELMER         MOCLDY    68  66  94 S5        29.88S
SAVANNAH       CLEAR     70  68  94 S5        29.88S
$$

TNZ008-025-027-028-033-062-065-066-261000-
NORTH MIDDLE TENNESSEE

CITY           SKY/WX    TMP DP  RH WIND       PRES   REMARKS
NASHVILLE      FAIR      68  65  90 S7        29.89F
DICKSON        SUNNY     68  66  94 VRB7      29.89R
PORTLAND       CLEAR     68  68 100 S8        29.89R
CLARKSVILLE    FAIR      68  65  90 CALM      29.87R
SMYRNA         FAIR      68  66  93 S3        29.91S
MURFREESBORO   PTSUNNY   70  66  88 S5        29.90R
COOKEVILLE     PTCLDY    64  64 100 CALM      29.92S FOG
LIVINGSTON     MOSUNNY   68  64  88 SW5       29.92S
CROSSVILLE     FAIR      66  64  93 CALM      29.97S
ROCKWOOD       CLOUDY    68  66  94 VRB3      29.95F
$$

TNZ061-075-076-078-094-096-097-261000-
SOUTH MIDDLE TENNESSEE

CITY           SKY/WX    TMP DP  RH WIND       PRES   REMARKS
LEWISBURG      SUNNY     64  64 100 S5        29.91S
FAYETTEVILLE   CLOUDY    68  68 100 S7        29.92S
TULLAHOMA      MOCLDY    68  66  94 CALM      29.92S
WINCHESTER     MOCLDY    70  66  88 CALM      29.92S
MCMINNVILLE    CLOUDY    68  66  94 CALM      29.92R
COLUMBIA       CLOUDY    68  68 100 CALM      29.89R
SHELBYVILLE    CLEAR     68  66  94 CALM      29.91F
$$

TNZ017-018-042-046-047-261000-
NORTHEAST TENNESSEE

CITY           SKY/WX    TMP DP  RH WIND       PRES   REMARKS
TRI CITIES     CLOUDY    66  65  96 CALM      29.95F THUNDER
ELIZABETHTON   CLOUDY    68  63  83 CALM      29.96F
GREENEVILLE    CLOUDY    70  64  83 SW5       29.96S
$$

TNZ012-013-036-069-073-074-261000-
CENTRAL EAST TENNESSEE

CITY           SKY/WX    TMP DP  RH WIND       PRES   REMARKS
KNOXVILLE      CLOUDY    71  68  90 SW5       29.92F
OAK RIDGE      MOCLDY    70  70 100 CALM      29.94F
DOWNTOWN KNOXV   N/A     70  68  94 CALM      29.93F
GATLINBURG     CLOUDY    70  68  94 CALM      29.94S
MORRISTOWN     CLOUDY    70  70 100 CALM      29.95S FOG
JACKSBORO      CLOUDY    70  66  88 CALM      29.96F
$$

TNZ083-085-099-261000-
SOUTHEAST TENNESSEE

CITY           SKY/WX    TMP DP  RH WIND       PRES   REMARKS
CHATTANOOGA    CLOUDY    70  67  90 CALM      29.93S
DAYTON         SUNNY     72  70  94 SE3       29.92S
$$

SKY/WX REPORTED AS FAIR MEANS FEW OR NO CLOUDS BELOW
12 THOUSAND FEET.




USA.gov is the U.S. government's official web portal to all federal, state and local government web resources and services.